Regional Weather Roundup
Issued by NWS Glasgow, MT

Home | Current Version | Previous Version | Text Only | Print | Product List | Glossary On
Versions: 1 2 3 4 5 6 7 8 9 10 11 12 13 14 15 16 17 18 19 20 21 22 23 24 25 26 27
000
ASUS45 KGGW 042015
RWRGGW
HOURLY REGIONAL WEATHER ROUNDUP FOR NORTHEAST MONTANA
NATIONAL WEATHER SERVICE GLASGOW MONTANA
100 PM MST SUN DEC 04 2016

NOTE: "FAIR" INDICATES FEW OR NO CLOUDS BELOW 12,000 FEET WITH NO
SIGNIFICANT WEATHER AND/OR OBSTRUCTIONS TO VISISBILITY.

NORTHEAST MONTANA


CITY           SKY/WX    TMP DP  RH WIND       PRES   REMARKS
GLASGOW        CLOUDY    40  28  62 S9        29.58F
PLENTYWOOD       N/A     33  25  72 SE3         N/A
WOLF POINT     MOSUNNY   40  28  62 E3        29.62F
JORDAN           N/A     42  20  41 SW15      29.60F
SIDNEY         SUNNY     34  24  67 S13       29.66F
GLENDIVE       SUNNY     36  24  62 S7        29.65F
MALTA            N/A     40  28  62 SW5         N/A
SCOBEY           N/A     32  19  59 CALM      29.60F

FORT PECK REPORTS


CITY           SKY/WX    TMP DP  RH WIND       PRES   REMARKS
FORT PECK        N/A     43  27  53 S12         N/A
THE PINES        N/A     45  21  38 SW2         N/A

SOUTHEAST MONTANA


CITY           SKY/WX    TMP DP  RH WIND       PRES   REMARKS
BILLINGS       CLOUDY    41  18  39 SW8       29.62F
MILES CITY     CLOUDY    43  17  35 SW8       29.65F
BAKER          SUNNY     37  23  56 SW10      29.67F
LIVINGSTON     LGT SNOW  34  25  69 SW30G38   29.59F

CENTRAL MONTANA


CITY           SKY/WX    TMP DP  RH WIND       PRES   REMARKS
HAVRE          CLOUDY    40  26  57 SW8       29.52F
LEWISTOWN      CLOUDY    38  21  50 SW20G26   29.54F
GREAT FALLS    SUNNY     41  24  51 SW28G38   29.50F
CUT BANK       PTSUNNY   35  25  66 W15       29.48F
HELENA         CLOUDY    42  23  46 CALM      29.57F
BUTTE          CLOUDY    34  22  61 SW8       29.62F
BOZEMAN        CLOUDY    40  25  55 SW17G24   29.62F

WESTERN MONTANA


CITY           SKY/WX    TMP DP  RH WIND       PRES   REMARKS
MISSOULA       CLOUDY    36  34  92 W5        29.64F
KALISPELL      NOT AVBL

NORTH DAKOTA


CITY           SKY/WX    TMP DP  RH WIND       PRES   REMARKS
WILLISTON      SUNNY     31  22  69 SW6       29.66F
DICKINSON      SUNNY     29  22  75 W10       29.65F
MINOT          SUNNY     29  22  75 W9        29.65F
BISMARCK       SUNNY     32  22  66 W14       29.72F

SOUTHERN SASKATCHEWAN


CITY           SKY/WX    TMP DP  RH WIND       PRES   REMARKS
REGINA         PTSUNNY   25  19  80 SE7       29.59F
ESTEVAN        MOSUNNY   23  14  68 S5        29.63F
SWIFT CURRENT  PTSUNNY   25  19  80 W2        29.51F





USA.gov is the U.S. government's official web portal to all federal, state and local government web resources and services.